TimeCDT,TemperatureF,Dew PointF,Humidity,Sea Level PressureIn,VisibilityMPH,Wind Direction,Wind SpeedMPH,Gust SpeedMPH,PrecipitationIn,Events,Conditions,WindDirDegrees,DateUTC
12:15 AM,46.4,44.6,93,29.86,10.0,Calm,Calm,-,N/A,,Clear,0,2013-11-02 05:15:00
12:35 AM,46.4,44.6,93,29.87,10.0,Calm,Calm,-,N/A,,Clear,0,2013-11-02 05:35:00
12:55 AM,46.4,44.6,93,29.87,10.0,Calm,Calm,-,N/A,,Clear,0,2013-11-02 05:55:00
1:15 AM,44.6,42.8,93,29.87,10.0,Calm,Calm,-,N/A,,Clear,0,2013-11-02 06:15:00
1:35 AM,44.6,42.8,93,29.87,10.0,Calm,Calm,-,N/A,,Clear,0,2013-11-02 06:35:00
1:55 AM,44.6,42.8,93,29.87,10.0,Calm,Calm,-,N/A,,Clear,0,2013-11-02 06:55:00
2:15 AM,42.8,42.8,100,29.86,10.0,Calm,Calm,-,N/A,,Clear,0,2013-11-02 07:15:00
2:35 AM,42.8,41.0,93,29.86,10.0,Calm,Calm,-,N/A,,Clear,0,2013-11-02 07:35:00
2:55 AM,42.8,41.0,93,29.87,10.0,Calm,Calm,-,N/A,,Clear,0,2013-11-02 07:55:00
3:15 AM,42.8,41.0,93,29.87,10.0,Calm,Calm,-,N/A,,Clear,0,2013-11-02 08:15:00
3:35 AM,42.8,41.0,93,29.87,10.0,Calm,Calm,-,N/A,,Clear,0,2013-11-02 08:35:00
3:55 AM,42.8,41.0,93,29.87,10.0,Calm,Calm,-,N/A,,Clear,0,2013-11-02 08:55:00
4:15 AM,42.8,42.8,100,29.87,10.0,Calm,Calm,-,N/A,,Clear,0,2013-11-02 09:15:00
4:35 AM,41.0,41.0,100,29.88,10.0,Calm,Calm,-,N/A,,Clear,0,2013-11-02 09:35:00
4:55 AM,42.8,41.0,93,29.88,10.0,Calm,Calm,-,N/A,,Clear,0,2013-11-02 09:55:00
5:15 AM,41.0,41.0,100,29.88,10.0,Calm,Calm,-,N/A,,Scattered Clouds,0,2013-11-02 10:15:00
5:35 AM,42.8,41.0,93,29.89,10.0,Calm,Calm,-,N/A,,Mostly Cloudy,0,2013-11-02 10:35:00
5:55 AM,42.8,41.0,93,29.90,10.0,Calm,Calm,-,N/A,,Mostly Cloudy,0,2013-11-02 10:55:00
6:15 AM,44.6,42.8,93,29.90,10.0,Calm,Calm,-,N/A,,Scattered Clouds,0,2013-11-02 11:15:00
6:35 AM,44.6,42.8,93,29.91,10.0,Calm,Calm,-,N/A,,Scattered Clouds,0,2013-11-02 11:35:00
6:55 AM,44.6,42.8,93,29.92,10.0,Calm,Calm,-,N/A,,Scattered Clouds,0,2013-11-02 11:55:00
7:15 AM,44.6,42.8,93,29.92,10.0,Calm,Calm,-,N/A,,Scattered Clouds,0,2013-11-02 12:15:00
7:35 AM,42.8,42.8,100,29.93,10.0,Calm,Calm,-,N/A,,Scattered Clouds,0,2013-11-02 12:35:00
7:55 AM,44.6,42.8,93,29.93,10.0,Calm,Calm,-,N/A,,Scattered Clouds,0,2013-11-02 12:55:00
8:15 AM,44.6,44.6,100,29.94,10.0,Calm,Calm,-,N/A,,Clear,0,2013-11-02 13:15:00
8:35 AM,50.0,44.6,82,29.95,10.0,Calm,Calm,-,N/A,,Clear,0,2013-11-02 13:35:00
8:55 AM,51.8,42.8,71,29.96,10.0,Calm,Calm,-,N/A,,Clear,0,2013-11-02 13:55:00
9:15 AM,51.8,42.8,71,29.97,10.0,Calm,Calm,-,N/A,,Clear,0,2013-11-02 14:15:00
9:35 AM,53.6,42.8,67,29.97,10.0,Calm,Calm,-,N/A,,Clear,0,2013-11-02 14:35:00
9:55 AM,53.6,42.8,67,29.97,10.0,NNW,3.5,-,N/A,,Clear,340,2013-11-02 14:55:00
10:15 AM,55.4,41.0,58,29.97,10.0,Calm,Calm,-,N/A,,Clear,0,2013-11-02 15:15:00
10:35 AM,59.0,37.4,45,29.97,10.0,Calm,Calm,-,N/A,,Clear,0,2013-11-02 15:35:00
10:55 AM,59.0,35.6,42,29.98,10.0,Calm,Calm,-,N/A,,Clear,0,2013-11-02 15:55:00
12:15 PM,62.6,33.8,34,29.98,10.0,Calm,Calm,-,N/A,,Scattered Clouds,0,2013-11-02 17:15:00
12:35 PM,60.8,33.8,36,29.97,10.0,WNW,11.5,16.1,N/A,,Scattered Clouds,300,2013-11-02 17:35:00
12:55 PM,62.6,32.0,32,29.97,10.0,WNW,8.1,17.3,N/A,,Clear,300,2013-11-02 17:55:00
1:15 PM,60.8,33.8,36,29.96,10.0,NW,8.1,-,N/A,,Clear,320,2013-11-02 18:15:00
1:35 PM,62.6,32.0,32,29.96,10.0,NW,12.7,18.4,N/A,,Scattered Clouds,320,2013-11-02 18:35:00
1:55 PM,62.6,24.8,24,29.96,10.0,NW,13.8,-,N/A,,Scattered Clouds,320,2013-11-02 18:55:00
2:15 PM,60.8,26.6,27,29.96,10.0,WNW,11.5,18.4,N/A,,Clear,300,2013-11-02 19:15:00
2:35 PM,60.8,26.6,27,29.95,10.0,WNW,10.4,16.1,N/A,,Clear,290,2013-11-02 19:35:00
2:55 PM,62.6,26.6,26,29.96,10.0,WNW,15.0,18.4,N/A,,Clear,290,2013-11-02 19:55:00
3:15 PM,60.8,28.4,29,29.96,10.0,NW,12.7,17.3,N/A,,Clear,310,2013-11-02 20:15:00
3:35 PM,60.8,28.4,29,29.96,10.0,NW,10.4,-,N/A,,Clear,320,2013-11-02 20:35:00
3:55 PM,59.0,30.2,34,29.96,10.0,NNW,6.9,-,N/A,,Clear,330,2013-11-02 20:55:00
4:15 PM,60.8,30.2,31,29.97,10.0,NNW,9.2,-,N/A,,Clear,330,2013-11-02 21:15:00
4:35 PM,60.8,30.2,31,29.98,10.0,NW,11.5,19.6,N/A,,Clear,310,2013-11-02 21:35:00
4:55 PM,59.0,32.0,36,29.98,10.0,NW,10.4,16.1,N/A,,Scattered Clouds,310,2013-11-02 21:55:00
5:15 PM,59.0,32.0,36,29.99,10.0,NW,6.9,-,N/A,,Clear,310,2013-11-02 22:15:00
5:35 PM,57.2,33.8,41,30.01,10.0,NW,8.1,-,N/A,,Scattered Clouds,310,2013-11-02 22:35:00
5:55 PM,55.4,33.8,44,30.01,10.0,NW,6.9,-,N/A,,Scattered Clouds,310,2013-11-02 22:55:00
6:15 PM,53.6,33.8,47,30.02,10.0,NW,4.6,-,N/A,,Clear,310,2013-11-02 23:15:00
6:35 PM,51.8,33.8,50,30.04,10.0,NW,3.5,-,N/A,,Scattered Clouds,310,2013-11-02 23:35:00
6:55 PM,51.8,35.6,54,30.05,10.0,WNW,3.5,-,N/A,,Scattered Clouds,300,2013-11-02 23:55:00
7:15 PM,50.0,35.6,58,30.06,10.0,NW,8.1,-,N/A,,Scattered Clouds,320,2013-11-03 00:15:00
7:35 PM,51.8,33.8,50,30.08,10.0,NNW,6.9,-,N/A,,Clear,330,2013-11-03 00:35:00
7:55 PM,51.8,33.8,50,30.09,10.0,NW,9.2,-,N/A,,Clear,320,2013-11-03 00:55:00
8:15 PM,51.8,33.8,50,30.10,10.0,NNW,6.9,-,N/A,,Clear,330,2013-11-03 01:15:00
8:35 PM,46.4,33.8,62,30.10,10.0,NW,5.8,-,N/A,,Clear,320,2013-11-03 01:35:00
8:55 PM,46.4,35.6,66,30.11,10.0,NNW,3.5,-,N/A,,Clear,340,2013-11-03 01:55:00
9:15 PM,44.6,35.6,71,30.13,10.0,NNW,4.6,-,N/A,,Clear,330,2013-11-03 02:15:00
9:35 PM,46.4,35.6,66,30.13,10.0,NNW,6.9,-,N/A,,Scattered Clouds,330,2013-11-03 02:35:00
9:55 PM,46.4,35.6,66,30.14,10.0,NNW,5.8,-,N/A,,Clear,340,2013-11-03 02:55:00
10:15 PM,44.6,35.6,71,30.15,10.0,NW,3.5,-,N/A,,Clear,320,2013-11-03 03:15:00
10:35 PM,46.4,35.6,66,30.14,10.0,Calm,Calm,-,N/A,,Clear,0,2013-11-03 03:35:00
10:55 PM,44.6,35.6,71,30.14,10.0,North,4.6,-,N/A,,Clear,360,2013-11-03 03:55:00
11:15 PM,46.4,35.6,66,30.15,10.0,North,5.8,-,N/A,,Clear,360,2013-11-03 04:15:00
11:35 PM,46.4,35.6,66,30.15,10.0,North,5.8,-,N/A,,Clear,360,2013-11-03 04:35:00
11:55 PM,46.4,35.6,66,30.15,10.0,North,4.6,-,N/A,,Clear,10,2013-11-03 04:55:00